TimeCST,TemperatureF,Dew PointF,Humidity,Sea Level PressureIn,VisibilityMPH,Wind Direction,Wind SpeedMPH,Gust SpeedMPH,PrecipitationIn,Events,Conditions,WindDirDegrees,DateUTC
12:15 AM,21.2,17.1,84,30.07,10.0,South,5.8,-,N/A,,Clear,190,2014-02-12 06:15:00
12:35 AM,20.3,16.5,85,30.06,10.0,SSW,5.8,-,N/A,,Clear,200,2014-02-12 06:35:00
12:55 AM,19.9,16.7,87,30.07,10.0,SSW,3.5,-,N/A,,Clear,210,2014-02-12 06:55:00
1:15 AM,19.9,16.7,87,30.07,10.0,SW,3.5,-,N/A,,Clear,230,2014-02-12 07:15:00
1:35 AM,19.9,16.7,87,30.06,10.0,SW,4.6,-,N/A,,Clear,220,2014-02-12 07:35:00
1:55 AM,19.9,16.7,87,30.06,10.0,SW,3.5,-,N/A,,Clear,230,2014-02-12 07:55:00
2:15 AM,19.9,16.9,88,30.06,10.0,SW,5.8,-,N/A,,Clear,220,2014-02-12 08:15:00
2:35 AM,19.9,16.7,87,30.06,10.0,SSW,4.6,-,N/A,,Clear,210,2014-02-12 08:35:00
2:55 AM,19.9,16.7,87,30.05,10.0,SW,4.6,-,N/A,,Clear,220,2014-02-12 08:55:00
3:15 AM,19.9,17.1,89,30.04,10.0,SSW,4.6,-,N/A,,Clear,210,2014-02-12 09:15:00
3:35 AM,19.9,17.2,89,30.04,10.0,SW,5.8,-,N/A,,Clear,230,2014-02-12 09:35:00
3:55 AM,17.6,14.7,88,30.05,10.0,WSW,4.6,-,N/A,,Clear,240,2014-02-12 09:55:00
4:15 AM,17.4,14.5,88,30.05,10.0,West,4.6,-,N/A,,Clear,270,2014-02-12 10:15:00
4:35 AM,16.7,13.6,88,30.04,10.0,West,3.5,-,N/A,,Clear,260,2014-02-12 10:35:00
4:55 AM,16.7,13.8,88,30.04,10.0,West,4.6,-,N/A,,Clear,260,2014-02-12 10:55:00
5:15 AM,17.4,14.0,86,30.05,10.0,WSW,5.8,-,N/A,,Clear,250,2014-02-12 11:15:00
5:35 AM,17.4,14.0,86,30.05,10.0,West,6.9,-,N/A,,Clear,260,2014-02-12 11:35:00
5:55 AM,16.2,12.7,86,30.05,10.0,West,4.6,-,N/A,,Clear,270,2014-02-12 11:55:00
6:15 AM,17.4,14.0,86,30.05,10.0,West,4.6,-,N/A,,Clear,270,2014-02-12 12:15:00
6:35 AM,18.1,14.9,87,30.06,10.0,WNW,5.8,-,N/A,,Clear,300,2014-02-12 12:35:00
6:55 AM,19.9,16.2,85,30.07,10.0,NW,5.8,-,N/A,,Clear,310,2014-02-12 12:55:00
7:15 AM,21.2,16.9,83,30.09,10.0,NW,9.2,-,N/A,,Clear,320,2014-02-12 13:15:00
7:35 AM,26.2,21.4,82,30.10,10.0,North,10.4,-,N/A,,Clear,350,2014-02-12 13:35:00
7:55 AM,31.8,24.3,74,30.11,10.0,North,10.4,-,N/A,,Clear,350,2014-02-12 13:55:00
8:15 AM,34.7,26.4,72,30.11,10.0,North,17.3,21.9,N/A,,Clear,360,2014-02-12 14:15:00
8:35 AM,35.4,26.2,69,30.11,10.0,North,18.4,25.3,N/A,,Clear,10,2014-02-12 14:35:00
8:55 AM,37.4,26.4,65,30.12,10.0,North,19.6,26.5,N/A,,Clear,10,2014-02-12 14:55:00
9:15 AM,39.2,27.3,62,30.13,10.0,North,19.6,28.8,N/A,,Clear,10,2014-02-12 15:15:00
9:35 AM,39.7,26.6,59,30.13,10.0,North,17.3,26.5,N/A,,Clear,10,2014-02-12 15:35:00
9:55 AM,40.3,26.4,58,30.14,10.0,North,15.0,26.5,N/A,,Clear,10,2014-02-12 15:55:00
10:15 AM,42.3,26.4,54,30.15,10.0,North,16.1,25.3,N/A,,Clear,10,2014-02-12 16:15:00
10:35 AM,43.5,25.9,50,30.15,10.0,NNE,18.4,24.2,N/A,,Clear,30,2014-02-12 16:35:00
10:55 AM,44.2,25.7,48,30.16,10.0,NNE,13.8,20.7,N/A,,Clear,20,2014-02-12 16:55:00
11:15 AM,46.6,26.6,46,30.16,10.0,North,16.1,21.9,N/A,,Clear,10,2014-02-12 17:15:00
11:35 AM,50.0,27.9,42,30.15,10.0,North,17.3,23.0,N/A,,Clear,10,2014-02-12 17:35:00
11:55 AM,50.0,26.4,40,30.15,10.0,NNE,15.0,23.0,N/A,,Clear,20,2014-02-12 17:55:00
12:15 PM,50.0,25.2,38,30.15,10.0,NNE,13.8,23.0,N/A,,Clear,20,2014-02-12 18:15:00
12:35 PM,50.2,24.4,37,30.15,10.0,North,15.0,23.0,N/A,,Clear,360,2014-02-12 18:35:00
12:55 PM,52.2,24.3,34,30.13,10.0,North,13.8,21.9,N/A,,Clear,10,2014-02-12 18:55:00
1:15 PM,52.3,22.8,32,30.12,10.0,NNE,12.7,18.4,N/A,,Clear,30,2014-02-12 19:15:00
1:35 PM,52.3,21.6,30,30.09,10.0,North,12.7,17.3,N/A,,Clear,10,2014-02-12 19:35:00
1:55 PM,54.9,23.2,29,30.09,10.0,NNE,9.2,-,N/A,,Clear,30,2014-02-12 19:55:00
2:15 PM,54.9,21.9,28,30.08,10.0,North,13.8,20.7,N/A,,Clear,10,2014-02-12 20:15:00
2:35 PM,54.9,21.6,27,30.06,10.0,NE,8.1,-,N/A,,Clear,50,2014-02-12 20:35:00
2:55 PM,54.9,21.2,27,30.06,10.0,NNE,6.9,16.1,N/A,,Clear,30,2014-02-12 20:55:00
3:15 PM,54.9,18.0,24,30.05,10.0,NNE,8.1,-,N/A,,Clear,20,2014-02-12 21:15:00
3:35 PM,54.9,17.4,23,30.04,10.0,NNE,5.8,-,N/A,,Clear,30,2014-02-12 21:35:00
3:55 PM,54.9,17.2,23,30.04,10.0,NNE,3.5,-,N/A,,Clear,20,2014-02-12 21:55:00
4:15 PM,54.9,16.5,22,30.04,10.0,Calm,Calm,-,N/A,,Clear,0,2014-02-12 22:15:00
4:35 PM,54.9,16.5,22,30.04,10.0,Calm,Calm,-,N/A,,Clear,0,2014-02-12 22:35:00
4:55 PM,54.9,16.7,22,30.03,10.0,Calm,Calm,-,N/A,,Clear,0,2014-02-12 22:55:00
5:15 PM,54.0,17.2,24,30.04,10.0,Calm,Calm,-,N/A,,Clear,0,2014-02-12 23:15:00
5:35 PM,53.1,16.7,24,30.04,10.0,Calm,Calm,-,N/A,,Clear,0,2014-02-12 23:35:00
5:55 PM,54.9,18.1,24,30.04,10.0,Calm,Calm,-,N/A,,Clear,0,2014-02-12 23:55:00
6:15 PM,52.3,16.9,25,30.03,10.0,Calm,Calm,-,N/A,,Clear,0,2014-02-13 00:15:00
6:35 PM,50.0,16.7,27,30.02,10.0,SE,4.6,-,N/A,,Clear,130,2014-02-13 00:35:00
6:55 PM,49.6,17.8,28,30.02,10.0,SE,4.6,-,N/A,,Clear,130,2014-02-13 00:55:00
7:15 PM,44.1,14.5,30,30.01,10.0,SE,6.9,-,N/A,,Clear,140,2014-02-13 01:15:00
7:35 PM,39.7,14.0,35,30.01,10.0,SSE,6.9,-,N/A,,Clear,150,2014-02-13 01:35:00
7:55 PM,37.8,14.0,38,30.02,10.0,SE,6.9,-,N/A,,Clear,140,2014-02-13 01:55:00
8:15 PM,39.4,16.9,40,30.01,10.0,SE,8.1,-,N/A,,Clear,140,2014-02-13 02:15:00
8:35 PM,37.4,16.3,42,30.01,10.0,SE,6.9,-,N/A,,Clear,140,2014-02-13 02:35:00
8:55 PM,37.2,17.2,44,30.00,10.0,South,9.2,-,N/A,,Clear,170,2014-02-13 02:55:00
9:15 PM,34.7,15.8,46,30.00,10.0,South,8.1,-,N/A,,Clear,170,2014-02-13 03:15:00
9:35 PM,37.4,17.4,44,29.99,10.0,South,10.4,-,N/A,,Clear,190,2014-02-13 03:35:00
9:55 PM,37.4,18.3,46,29.98,10.0,South,10.4,-,N/A,,Clear,190,2014-02-13 03:55:00
10:15 PM,37.4,19.6,49,29.97,10.0,South,9.2,-,N/A,,Clear,180,2014-02-13 04:15:00
10:35 PM,36.1,20.3,53,29.97,10.0,South,8.1,-,N/A,,Clear,180,2014-02-13 04:35:00
10:55 PM,34.7,21.2,58,29.95,10.0,SSE,6.9,-,N/A,,Clear,160,2014-02-13 04:55:00
11:15 PM,34.7,22.1,60,29.94,10.0,South,11.5,-,N/A,,Clear,190,2014-02-13 05:15:00
11:35 PM,34.7,21.9,60,29.94,10.0,SSW,9.2,-,N/A,,Clear,200,2014-02-13 05:35:00
11:55 PM,35.6,23.0,60,29.94,10.0,SSW,8.1,-,N/A,,Clear,200,2014-02-13 05:55:00